Time,TemperatureF,DewpointF,PressureIn,WindDirection,WindDirectionDegrees,WindSpeedMPH,WindSpeedGustMPH,Humidity,HourlyPrecipIn,Conditions,Clouds,dailyrainin,SoftwareType,DateUTC
2013-08-28 00:00:00,71.9,70.7,30.05,WSW,237,0.0,0.0,96,0.00,RA,FEW,0.00,WeatherDisplay:10.37,2013-08-28 05:00:00,
2013-08-28 00:05:00,71.8,70.6,30.05,WSW,237,0.0,0.0,96,0.00,RA,FEW,0.00,WeatherDisplay:10.37,2013-08-28 05:05:00,
2013-08-28 00:10:00,71.7,70.5,30.05,WSW,237,0.0,0.0,96,0.00,CLR,FEW,0.00,WeatherDisplay:10.37,2013-08-28 05:10:00,
2013-08-28 00:15:00,71.6,70.4,30.05,WSW,237,0.0,0.0,96,0.00,CLR,FEW,0.00,WeatherDisplay:10.37,2013-08-28 05:15:00,
2013-08-28 00:20:00,71.4,70.2,30.04,WSW,237,0.0,0.0,96,0.00,CLR,FEW,0.00,WeatherDisplay:10.37,2013-08-28 05:20:00,
2013-08-28 00:25:00,71.3,70.1,30.04,WSW,237,0.0,0.0,96,0.00,CLR,FEW,0.00,WeatherDisplay:10.37,2013-08-28 05:25:00,
2013-08-28 00:30:00,71.3,70.1,30.04,WSW,237,0.0,0.0,96,0.00,CLR,FEW,0.00,WeatherDisplay:10.37,2013-08-28 05:30:00,
2013-08-28 00:35:00,71.1,69.9,30.04,WSW,237,0.0,0.0,96,0.00,CLR,FEW,0.00,WeatherDisplay:10.37,2013-08-28 05:35:00,
2013-08-28 00:40:00,71.0,69.8,30.04,WSW,237,0.0,0.0,96,0.00,CLR,FEW,0.00,WeatherDisplay:10.37,2013-08-28 05:40:00,
2013-08-28 00:45:00,70.9,69.7,30.03,WSW,237,0.0,0.0,96,0.00,CLR,FEW,0.00,WeatherDisplay:10.37,2013-08-28 05:45:00,
2013-08-28 00:50:00,70.8,69.9,30.03,WSW,237,0.0,0.0,97,0.00,CLR,FEW,0.00,WeatherDisplay:10.37,2013-08-28 05:50:00,
2013-08-28 00:55:00,70.8,69.9,30.03,WSW,237,0.0,0.0,97,0.00,CLR,FEW,0.00,WeatherDisplay:10.37,2013-08-28 05:55:00,
2013-08-28 01:00:00,70.8,69.9,30.03,WSW,237,0.0,0.0,97,0.00,CLR,FEW,0.00,WeatherDisplay:10.37,2013-08-28 06:00:00,
2013-08-28 01:05:00,70.8,69.9,30.04,WSW,237,0.0,0.0,97,0.00,CLR,FEW,0.00,WeatherDisplay:10.37,2013-08-28 06:05:00,
2013-08-28 01:10:00,70.8,69.9,30.03,WSW,237,0.0,0.0,97,0.00,CLR,FEW,0.00,WeatherDisplay:10.37,2013-08-28 06:10:00,
2013-08-28 01:15:00,70.8,69.9,30.03,WSW,237,0.0,0.0,97,0.00,CLR,FEW,0.00,WeatherDisplay:10.37,2013-08-28 06:15:00,
2013-08-28 01:20:00,70.8,69.9,30.03,WSW,237,0.0,0.0,97,0.00,CLR,FEW,0.00,WeatherDisplay:10.37,2013-08-28 06:20:00,
2013-08-28 01:25:00,70.8,69.9,30.03,WSW,237,0.0,0.0,97,0.00,CLR,FEW,0.00,WeatherDisplay:10.37,2013-08-28 06:25:00,
2013-08-28 01:30:00,70.7,69.8,30.03,WSW,237,0.0,0.0,97,0.00,CLR,FEW,0.00,WeatherDisplay:10.37,2013-08-28 06:30:00,
2013-08-28 01:35:00,70.7,69.8,30.03,WSW,237,0.0,0.0,97,0.00,CLR,FEW,0.00,WeatherDisplay:10.37,2013-08-28 06:35:00,
2013-08-28 01:40:00,70.6,69.7,30.03,WSW,237,0.0,0.0,97,0.00,CLR,FEW,0.00,WeatherDisplay:10.37,2013-08-28 06:40:00,
2013-08-28 01:45:00,70.6,69.7,30.03,WSW,237,0.0,0.0,97,0.00,CLR,FEW,0.00,WeatherDisplay:10.37,2013-08-28 06:45:00,
2013-08-28 01:50:00,70.5,69.6,30.03,WSW,237,0.0,0.0,97,0.00,CLR,FEW,0.00,WeatherDisplay:10.37,2013-08-28 06:50:00,
2013-08-28 01:55:00,70.5,69.6,30.03,WSW,237,0.0,0.0,97,0.00,CLR,FEW,0.00,WeatherDisplay:10.37,2013-08-28 06:55:00,
2013-08-28 02:00:00,70.4,69.5,30.03,WSW,237,0.0,0.0,97,0.00,CLR,FEW,0.00,WeatherDisplay:10.37,2013-08-28 07:00:00,
2013-08-28 02:05:00,70.2,69.0,30.02,WSW,237,0.0,0.0,96,0.00,CLR,FEW,0.00,WeatherDisplay:10.37,2013-08-28 07:05:00,
2013-08-28 02:10:00,70.1,69.2,30.02,WSW,237,0.0,0.0,97,0.00,CLR,FEW,0.00,WeatherDisplay:10.37,2013-08-28 07:10:00,
2013-08-28 02:15:00,70.1,69.2,30.02,WSW,237,0.0,0.0,97,0.00,CLR,FEW,0.00,WeatherDisplay:10.37,2013-08-28 07:15:00,
2013-08-28 02:20:00,70.0,69.1,30.02,WSW,237,0.0,0.0,97,0.00,CLR,FEW,0.00,WeatherDisplay:10.37,2013-08-28 07:20:00,
2013-08-28 02:25:00,69.9,69.0,30.02,WSW,237,0.0,0.0,97,0.00,CLR,FEW,0.00,WeatherDisplay:10.37,2013-08-28 07:25:00,
2013-08-28 02:30:00,69.8,68.9,30.02,WSW,237,0.0,0.0,97,0.00,CLR,FEW,0.00,WeatherDisplay:10.37,2013-08-28 07:30:00,
2013-08-28 02:35:00,69.8,68.9,30.02,WSW,237,0.0,0.0,97,0.00,CLR,FEW,0.00,WeatherDisplay:10.37,2013-08-28 07:35:00,
2013-08-28 02:40:00,69.7,68.8,30.02,WSW,237,0.0,0.0,97,0.00,CLR,FEW,0.00,WeatherDisplay:10.37,2013-08-28 07:40:00,
2013-08-28 02:45:00,69.7,68.8,30.02,WSW,237,0.0,0.0,97,0.00,CLR,FEW,0.00,WeatherDisplay:10.37,2013-08-28 07:45:00,
2013-08-28 02:50:00,69.7,68.8,30.02,WSW,237,0.0,0.0,97,0.00,CLR,FEW,0.00,WeatherDisplay:10.37,2013-08-28 07:50:00,
2013-08-28 02:55:00,69.6,68.7,30.02,WSW,237,0.0,0.0,97,0.00,CLR,FEW,0.00,WeatherDisplay:10.37,2013-08-28 07:55:00,
2013-08-28 03:00:00,69.6,68.7,30.02,WSW,237,0.0,0.0,97,0.00,CLR,FEW,0.00,WeatherDisplay:10.37,2013-08-28 08:00:00,
2013-08-28 03:05:00,69.6,68.7,30.02,WSW,237,0.0,0.0,97,0.00,CLR,FEW,0.00,WeatherDisplay:10.37,2013-08-28 08:05:00,
2013-08-28 03:10:00,69.5,68.6,30.01,WSW,237,0.0,0.0,97,0.00,CLR,FEW,0.00,WeatherDisplay:10.37,2013-08-28 08:10:00,
2013-08-28 03:15:00,69.4,68.5,30.01,WSW,237,0.0,0.0,97,0.00,CLR,FEW,0.00,WeatherDisplay:10.37,2013-08-28 08:15:00,
2013-08-28 03:20:00,69.3,68.4,30.01,WSW,237,0.0,0.0,97,0.00,CLR,FEW,0.00,WeatherDisplay:10.37,2013-08-28 08:20:00,
2013-08-28 03:25:00,69.2,68.3,30.01,WSW,237,0.0,0.0,97,0.00,CLR,FEW,0.00,WeatherDisplay:10.37,2013-08-28 08:25:00,
2013-08-28 03:30:00,69.1,68.2,30.02,WSW,237,0.0,0.0,97,0.00,CLR,FEW,0.00,WeatherDisplay:10.37,2013-08-28 08:30:00,
2013-08-28 03:35:00,69.0,68.1,30.02,WSW,237,0.0,0.0,97,0.00,CLR,FEW,0.00,WeatherDisplay:10.37,2013-08-28 08:35:00,
2013-08-28 03:40:00,69.1,68.5,30.02,WSW,237,0.0,0.0,98,0.00,CLR,FEW,0.00,WeatherDisplay:10.37,2013-08-28 08:40:00,
2013-08-28 03:45:00,69.1,68.5,30.02,WSW,237,0.0,0.0,98,0.00,CLR,FEW,0.00,WeatherDisplay:10.37,2013-08-28 08:45:00,
2013-08-28 03:50:00,69.2,68.6,30.02,WSW,237,0.0,0.0,98,0.00,CLR,FEW,0.00,WeatherDisplay:10.37,2013-08-28 08:50:00,
2013-08-28 03:55:00,69.2,68.6,30.02,WSW,237,0.0,0.0,98,0.00,CLR,FEW,0.00,WeatherDisplay:10.37,2013-08-28 08:55:00,
2013-08-28 04:00:00,69.1,68.2,30.02,WSW,237,0.0,0.0,97,0.00,CLR,FEW,0.00,WeatherDisplay:10.37,2013-08-28 09:00:00,
2013-08-28 04:05:00,69.0,68.1,30.02,WSW,237,0.0,0.0,97,0.00,CLR,FEW,0.00,WeatherDisplay:10.37,2013-08-28 09:05:00,
2013-08-28 04:10:00,69.0,68.1,30.02,WSW,237,0.0,0.0,97,0.00,CLR,FEW,0.00,WeatherDisplay:10.37,2013-08-28 09:10:00,
2013-08-28 04:15:00,68.9,68.0,30.02,WSW,237,0.0,0.0,97,0.00,CLR,FEW,0.00,WeatherDisplay:10.37,2013-08-28 09:15:00,
2013-08-28 04:20:00,68.8,67.9,30.02,WSW,237,0.0,0.0,97,0.00,CLR,FEW,0.00,WeatherDisplay:10.37,2013-08-28 09:20:00,
2013-08-28 04:25:00,68.8,67.9,30.02,WSW,237,0.0,0.0,97,0.00,CLR,FEW,0.00,WeatherDisplay:10.37,2013-08-28 09:25:00,
2013-08-28 04:31:00,68.8,67.9,30.02,WSW,237,0.0,0.0,97,0.00,CLR,FEW,0.00,WeatherDisplay:10.37,2013-08-28 09:31:00,
2013-08-28 04:33:00,68.8,67.9,30.02,WSW,237,0.0,0.0,97,0.00,CLR,FEW,0.00,WeatherDisplay:10.37,2013-08-28 09:33:00,
2013-08-28 04:38:00,68.8,67.9,30.02,WSW,237,0.0,0.0,97,0.00,CLR,FEW,0.00,WeatherDisplay:10.37,2013-08-28 09:38:00,
2013-08-28 04:43:00,68.7,67.8,30.02,WSW,237,0.0,0.0,97,0.00,CLR,FEW,0.00,WeatherDisplay:10.37,2013-08-28 09:43:00,
2013-08-28 04:48:00,68.7,67.8,30.03,WSW,237,0.0,0.0,97,0.00,CLR,FEW,0.00,WeatherDisplay:10.37,2013-08-28 09:48:00,
2013-08-28 04:53:00,68.6,67.7,30.03,WSW,237,0.0,0.0,97,0.00,CLR,FEW,0.00,WeatherDisplay:10.37,2013-08-28 09:53:00,
2013-08-28 04:59:00,68.6,67.7,30.03,WSW,237,0.0,0.0,97,0.00,CLR,FEW,0.00,WeatherDisplay:10.37,2013-08-28 09:59:00,
2013-08-28 05:04:00,68.6,67.7,30.03,WSW,237,0.0,0.0,97,0.00,CLR,FEW,0.00,WeatherDisplay:10.37,2013-08-28 10:04:00,
2013-08-28 05:09:00,68.6,68.0,30.03,WSW,237,0.0,0.0,98,0.00,CLR,FEW,0.00,WeatherDisplay:10.37,2013-08-28 10:09:00,
2013-08-28 05:14:00,68.6,68.0,30.03,WSW,237,0.0,0.0,98,0.00,CLR,FEW,0.00,WeatherDisplay:10.37,2013-08-28 10:14:00,
2013-08-28 05:19:00,68.6,68.0,30.04,WSW,237,0.0,0.0,98,0.00,CLR,FEW,0.00,WeatherDisplay:10.37,2013-08-28 10:19:00,
2013-08-28 05:24:00,68.5,67.6,30.04,WSW,237,0.0,0.0,97,0.00,CLR,FEW,0.00,WeatherDisplay:10.37,2013-08-28 10:24:00,
2013-08-28 05:29:00,68.4,67.5,30.04,WSW,237,0.0,0.0,97,0.00,CLR,FEW,0.00,WeatherDisplay:10.37,2013-08-28 10:29:00,
2013-08-28 05:34:00,68.3,67.4,30.04,WSW,237,0.0,0.0,97,0.00,CLR,FEW,0.00,WeatherDisplay:10.37,2013-08-28 10:34:00,
2013-08-28 05:39:00,68.2,67.3,30.04,WSW,237,0.0,0.0,97,0.00,CLR,FEW,0.00,WeatherDisplay:10.37,2013-08-28 10:39:00,
2013-08-28 05:44:00,68.0,67.1,30.04,WSW,237,0.0,0.0,97,0.00,CLR,FEW,0.00,WeatherDisplay:10.37,2013-08-28 10:44:00,
2013-08-28 05:49:00,68.0,67.1,30.04,WSW,237,0.0,0.0,97,0.00,CLR,FEW,0.00,WeatherDisplay:10.37,2013-08-28 10:49:00,
2013-08-28 05:54:00,67.9,67.0,30.04,WSW,237,0.0,0.0,97,0.00,CLR,FEW,0.00,WeatherDisplay:10.37,2013-08-28 10:54:00,
2013-08-28 05:59:00,67.9,67.0,30.05,WSW,237,0.0,0.0,97,0.00,CLR,FEW,0.00,WeatherDisplay:10.37,2013-08-28 10:59:00,
2013-08-28 06:04:00,67.8,66.9,30.05,WSW,237,0.0,0.0,97,0.00,CLR,FEW,0.00,WeatherDisplay:10.37,2013-08-28 11:04:00,
2013-08-28 06:09:00,67.7,66.8,30.05,WSW,237,0.0,0.0,97,0.00,CLR,FEW,0.00,WeatherDisplay:10.37,2013-08-28 11:09:00,
2013-08-28 06:14:00,67.7,66.8,30.05,WSW,237,0.0,0.0,97,0.00,CLR,FEW,0.00,WeatherDisplay:10.37,2013-08-28 11:14:00,
2013-08-28 06:19:00,67.7,66.8,30.05,WSW,237,0.0,0.0,97,0.00,CLR,FEW,0.00,WeatherDisplay:10.37,2013-08-28 11:19:00,
2013-08-28 06:24:00,67.6,66.7,30.06,WSW,237,0.0,0.0,97,0.00,CLR,FEW,0.00,WeatherDisplay:10.37,2013-08-28 11:24:00,
2013-08-28 06:29:00,67.6,66.7,30.06,WSW,237,0.0,0.0,97,0.00,CLR,FEW,0.00,WeatherDisplay:10.37,2013-08-28 11:29:00,
2013-08-28 06:34:00,67.5,66.6,30.06,WSW,237,0.0,0.0,97,0.01,RA,FEW,0.01,WeatherDisplay:10.37,2013-08-28 11:34:00,
2013-08-28 06:39:00,67.5,66.6,30.07,WSW,237,0.0,0.0,97,0.01,RA,FEW,0.01,WeatherDisplay:10.37,2013-08-28 11:39:00,
2013-08-28 06:44:00,67.5,66.6,30.06,WSW,237,0.0,0.0,97,0.01,CLR,FEW,0.01,WeatherDisplay:10.37,2013-08-28 11:44:00,
2013-08-28 06:49:00,67.5,66.6,30.06,WSW,237,0.0,0.0,97,0.01,CLR,FEW,0.01,WeatherDisplay:10.37,2013-08-28 11:49:00,
2013-08-28 06:54:00,67.5,66.9,30.06,WSW,237,0.0,0.0,98,0.01,CLR,FEW,0.01,WeatherDisplay:10.37,2013-08-28 11:54:00,
2013-08-28 06:59:00,67.6,67.0,30.06,WSW,237,0.0,0.0,98,0.01,CLR,FEW,0.01,WeatherDisplay:10.37,2013-08-28 11:59:00,
2013-08-28 07:04:00,67.7,67.1,30.06,WSW,237,0.0,0.0,98,0.01,CLR,FEW,0.01,WeatherDisplay:10.37,2013-08-28 12:04:00,
2013-08-28 07:09:00,68.1,67.5,30.07,WSW,237,0.0,0.0,98,0.01,CLR,FEW,0.01,WeatherDisplay:10.37,2013-08-28 12:09:00,
2013-08-28 07:14:00,68.3,67.7,30.06,WSW,237,0.0,0.0,98,0.01,CLR,FEW,0.01,WeatherDisplay:10.37,2013-08-28 12:14:00,
2013-08-28 07:19:00,68.6,68.0,30.06,WSW,237,0.0,0.0,98,0.01,CLR,FEW,0.01,WeatherDisplay:10.37,2013-08-28 12:19:00,
2013-08-28 07:24:00,68.9,68.3,30.06,WSW,237,0.0,0.0,98,0.01,CLR,FEW,0.01,WeatherDisplay:10.37,2013-08-28 12:24:00,
2013-08-28 07:29:00,69.2,68.6,30.06,WSW,237,0.0,0.0,98,0.01,CLR,FEW,0.01,WeatherDisplay:10.37,2013-08-28 12:29:00,
2013-08-28 07:34:00,69.7,69.1,30.06,WSW,237,0.0,0.0,98,0.00,CLR,FEW,0.01,WeatherDisplay:10.37,2013-08-28 12:34:00,
2013-08-28 07:39:00,70.0,69.4,30.06,WSW,237,0.0,0.0,98,0.00,CLR,FEW,0.01,WeatherDisplay:10.37,2013-08-28 12:39:00,
2013-08-28 07:44:00,70.4,69.8,30.06,WSW,237,0.0,0.0,98,0.00,CLR,FEW,0.01,WeatherDisplay:10.37,2013-08-28 12:44:00,
2013-08-28 07:49:00,70.9,70.3,30.06,WSW,237,0.0,0.0,98,0.00,CLR,FEW,0.01,WeatherDisplay:10.37,2013-08-28 12:49:00,
2013-08-28 07:54:00,71.3,70.7,30.06,WSW,237,0.0,0.0,98,0.00,CLR,FEW,0.01,WeatherDisplay:10.37,2013-08-28 12:54:00,
2013-08-28 07:59:00,71.8,71.2,30.06,WSW,237,0.0,0.0,98,0.00,CLR,FEW,0.01,WeatherDisplay:10.37,2013-08-28 12:59:00,
2013-08-28 08:04:00,72.3,71.7,30.06,WSW,237,0.0,0.0,98,0.00,CLR,FEW,0.01,WeatherDisplay:10.37,2013-08-28 13:04:00,
2013-08-28 08:09:00,72.8,71.9,30.06,WSW,237,0.0,0.0,97,0.00,CLR,FEW,0.01,WeatherDisplay:10.37,2013-08-28 13:09:00,
2013-08-28 08:14:00,73.2,72.0,30.06,WSW,237,0.0,0.0,96,0.00,CLR,FEW,0.01,WeatherDisplay:10.37,2013-08-28 13:14:00,
2013-08-28 08:19:00,73.7,72.5,30.06,WSW,237,0.0,0.0,96,0.00,CLR,FEW,0.01,WeatherDisplay:10.37,2013-08-28 13:19:00,
2013-08-28 08:24:00,74.1,72.6,30.06,WSW,237,0.0,0.0,95,0.00,CLR,FEW,0.01,WeatherDisplay:10.37,2013-08-28 13:24:00,
2013-08-28 08:29:00,74.7,73.2,30.05,WSW,239,0.0,0.0,95,0.00,CLR,FEW,0.01,WeatherDisplay:10.37,2013-08-28 13:29:00,
2013-08-28 08:34:00,75.3,73.5,30.05,WSW,240,0.0,0.0,94,0.00,CLR,FEW,0.01,WeatherDisplay:10.37,2013-08-28 13:34:00,
2013-08-28 08:39:00,75.9,73.7,30.05,WNW,296,0.0,0.0,93,0.00,CLR,FEW,0.01,WeatherDisplay:10.37,2013-08-28 13:39:00,
2013-08-28 08:44:00,76.5,73.7,30.06,SW,236,0.0,0.0,91,0.00,CLR,FEW,0.01,WeatherDisplay:10.37,2013-08-28 13:44:00,
2013-08-28 08:49:00,77.0,74.2,30.06,WSW,248,0.0,0.0,91,0.00,CLR,FEW,0.01,WeatherDisplay:10.37,2013-08-28 13:49:00,
2013-08-28 08:54:00,77.6,74.4,30.06,SW,232,0.0,0.0,90,0.00,CLR,FEW,0.01,WeatherDisplay:10.37,2013-08-28 13:54:00,
2013-08-28 08:59:00,78.1,73.9,30.06,SW,222,0.0,0.0,87,0.00,CLR,FEW,0.01,WeatherDisplay:10.37,2013-08-28 13:59:00,
2013-08-28 09:04:00,78.7,74.5,30.06,SW,223,0.0,0.0,87,0.00,CLR,FEW,0.01,WeatherDisplay:10.37,2013-08-28 14:04:00,
2013-08-28 09:09:00,79.2,74.3,30.06,SW,227,0.0,0.0,85,0.00,CLR,FEW,0.01,WeatherDisplay:10.37,2013-08-28 14:09:00,
2013-08-28 09:14:00,79.8,75.2,30.06,SW,227,0.0,0.0,86,0.00,CLR,FEW,0.01,WeatherDisplay:10.37,2013-08-28 14:14:00,
2013-08-28 09:19:00,80.3,75.4,30.06,SW,227,0.0,0.0,85,0.00,CLR,FEW,0.01,WeatherDisplay:10.37,2013-08-28 14:19:00,
2013-08-28 09:24:00,80.9,75.2,30.06,SW,227,0.0,0.0,83,0.00,CLR,FEW,0.01,WeatherDisplay:10.37,2013-08-28 14:24:00,
2013-08-28 09:29:00,81.4,75.4,30.06,WSW,244,0.0,0.0,82,0.00,CLR,FEW,0.01,WeatherDisplay:10.37,2013-08-28 14:29:00,
2013-08-28 09:34:00,81.7,74.2,30.06,NW,312,0.0,0.0,78,0.00,CLR,FEW,0.01,WeatherDisplay:10.37,2013-08-28 14:34:00,
2013-08-28 09:39:00,82.0,75.6,30.05,SSW,213,0.0,0.0,81,0.00,CLR,FEW,0.01,WeatherDisplay:10.37,2013-08-28 14:39:00,
2013-08-28 09:44:00,82.1,73.8,30.06,West,259,0.0,0.0,76,0.00,CLR,FEW,0.01,WeatherDisplay:10.37,2013-08-28 14:44:00,
2013-08-28 09:49:00,82.3,74.4,30.06,WNW,290,0.0,0.0,77,0.00,CLR,FEW,0.01,WeatherDisplay:10.37,2013-08-28 14:49:00,
2013-08-28 09:54:00,82.6,73.5,30.06,WNW,284,0.0,0.0,74,0.00,CLR,FEW,0.01,WeatherDisplay:10.37,2013-08-28 14:54:00,
2013-08-28 09:59:00,82.8,74.1,30.06,West,281,0.0,0.0,75,0.00,CLR,FEW,0.01,WeatherDisplay:10.37,2013-08-28 14:59:00,
2013-08-28 10:04:00,82.7,74.4,30.06,West,281,0.0,0.0,76,0.00,CLR,FEW,0.01,WeatherDisplay:10.37,2013-08-28 15:04:00,
2013-08-28 10:09:00,83.0,75.0,30.06,SW,235,0.0,0.0,77,0.00,CLR,FEW,0.01,WeatherDisplay:10.37,2013-08-28 15:09:00,
2013-08-28 10:14:00,83.3,74.9,30.06,WSW,252,0.0,0.0,76,0.00,CLR,FEW,0.01,WeatherDisplay:10.37,2013-08-28 15:14:00,
2013-08-28 10:19:00,83.8,75.0,30.05,West,281,0.0,0.0,75,0.00,CLR,FEW,0.01,WeatherDisplay:10.37,2013-08-28 15:19:00,
2013-08-28 10:24:00,84.1,73.7,30.05,NNW,342,0.0,0.0,71,0.00,CLR,FEW,0.01,WeatherDisplay:10.37,2013-08-28 15:24:00,
2013-08-28 10:29:00,84.3,74.3,30.05,WSW,254,0.0,0.0,72,0.00,CLR,FEW,0.01,WeatherDisplay:10.37,2013-08-28 15:29:00,
2013-08-28 10:35:00,84.5,74.1,30.05,NW,311,0.0,0.0,71,0.00,CLR,FEW,0.01,WeatherDisplay:10.37,2013-08-28 15:35:00,
2013-08-28 10:40:00,84.7,74.3,30.05,SW,221,0.0,0.0,71,0.00,CLR,FEW,0.01,WeatherDisplay:10.37,2013-08-28 15:40:00,
2013-08-28 10:45:00,85.0,75.0,30.05,NW,305,0.0,0.0,72,0.00,CLR,FEW,0.01,WeatherDisplay:10.37,2013-08-28 15:45:00,
2013-08-28 10:50:00,85.3,74.4,30.05,NW,304,0.0,0.0,70,0.00,CLR,FEW,0.01,WeatherDisplay:10.37,2013-08-28 15:50:00,
2013-08-28 10:55:00,85.5,75.0,30.05,SSW,205,0.0,0.0,71,0.00,CLR,FEW,0.01,WeatherDisplay:10.37,2013-08-28 15:55:00,
2013-08-28 11:00:00,85.7,75.2,30.05,SSW,209,0.0,0.0,71,0.00,CLR,FEW,0.01,WeatherDisplay:10.37,2013-08-28 16:00:00,
2013-08-28 11:05:00,85.9,75.8,30.05,WNW,295,0.0,0.0,72,0.00,CLR,FEW,0.01,WeatherDisplay:10.37,2013-08-28 16:05:00,
2013-08-28 11:10:00,86.1,75.2,30.05,NW,312,0.0,0.0,70,0.00,CLR,FEW,0.01,WeatherDisplay:10.37,2013-08-28 16:10:00,
2013-08-28 11:15:00,86.3,74.9,30.05,WNW,284,0.0,0.0,69,0.00,CLR,FEW,0.01,WeatherDisplay:10.37,2013-08-28 16:15:00,
2013-08-28 11:20:00,86.5,75.1,30.05,North,355,0.0,0.0,69,0.00,CLR,FEW,0.01,WeatherDisplay:10.37,2013-08-28 16:20:00,
2013-08-28 11:25:00,86.7,76.2,30.05,NW,313,0.0,0.0,71,0.00,CLR,FEW,0.01,WeatherDisplay:10.37,2013-08-28 16:25:00,
2013-08-28 11:30:00,86.9,77.2,30.05,NW,317,0.0,0.0,73,0.00,CLR,FEW,0.01,WeatherDisplay:10.37,2013-08-28 16:30:00,
2013-08-28 11:35:00,87.2,76.2,30.05,WNW,302,0.0,0.0,70,0.00,CLR,FEW,0.01,WeatherDisplay:10.37,2013-08-28 16:35:00,
2013-08-28 11:40:00,87.4,75.5,30.05,WNW,298,0.0,0.0,68,0.00,CLR,FEW,0.01,WeatherDisplay:10.37,2013-08-28 16:40:00,
2013-08-28 11:45:00,87.5,76.1,30.05,WNW,286,0.0,0.0,69,0.00,CLR,FEW,0.01,WeatherDisplay:10.37,2013-08-28 16:45:00,
2013-08-28 11:50:00,87.4,74.6,30.05,WSW,243,0.0,0.0,66,0.00,CLR,FEW,0.01,WeatherDisplay:10.37,2013-08-28 16:50:00,
2013-08-28 11:55:00,87.3,73.6,30.05,SSE,149,0.0,0.0,64,0.00,CLR,FEW,0.01,WeatherDisplay:10.37,2013-08-28 16:55:00,
2013-08-28 12:00:00,87.5,75.2,30.05,SW,230,0.0,0.0,67,0.00,CLR,FEW,0.01,WeatherDisplay:10.37,2013-08-28 17:00:00,
2013-08-28 12:05:00,87.5,74.3,30.04,WNW,303,0.0,0.0,65,0.00,CLR,FEW,0.01,WeatherDisplay:10.37,2013-08-28 17:05:00,
2013-08-28 12:10:00,87.7,75.4,30.04,WNW,296,0.0,0.0,67,0.00,CLR,FEW,0.01,WeatherDisplay:10.37,2013-08-28 17:10:00,
2013-08-28 12:15:00,87.7,75.4,30.04,WNW,292,0.0,0.0,67,0.00,CLR,FEW,0.01,WeatherDisplay:10.37,2013-08-28 17:15:00,
2013-08-28 12:20:00,87.7,73.5,30.04,NNW,335,0.0,0.0,63,0.00,CLR,FEW,0.01,WeatherDisplay:10.37,2013-08-28 17:20:00,
2013-08-28 12:25:00,88.0,75.7,30.04,WNW,298,0.0,0.0,67,0.00,CLR,FEW,0.01,WeatherDisplay:10.37,2013-08-28 17:25:00,
2013-08-28 12:30:00,88.1,75.3,30.04,NW,325,0.0,0.0,66,0.00,CLR,FEW,0.01,WeatherDisplay:10.37,2013-08-28 17:30:00,
2013-08-28 12:35:00,88.3,75.5,30.04,NW,314,0.0,0.0,66,0.00,CLR,FEW,0.01,WeatherDisplay:10.37,2013-08-28 17:35:00,
2013-08-28 12:40:00,88.3,75.0,30.04,NW,309,0.0,0.0,65,0.00,CLR,FEW,0.01,WeatherDisplay:10.37,2013-08-28 17:40:00,
2013-08-28 12:45:00,88.4,76.0,30.04,NNW,336,0.0,0.0,67,0.00,CLR,FEW,0.01,WeatherDisplay:10.37,2013-08-28 17:45:00,
2013-08-28 12:50:00,88.4,73.7,30.04,NW,315,0.0,0.0,62,0.00,CLR,FEW,0.01,WeatherDisplay:10.37,2013-08-28 17:50:00,
2013-08-28 12:55:00,88.6,74.9,30.04,West,279,0.0,0.0,64,0.00,CLR,FEW,0.01,WeatherDisplay:10.37,2013-08-28 17:55:00,
2013-08-28 13:00:00,88.8,76.0,30.04,West,263,0.0,0.0,66,0.00,CLR,FEW,0.01,WeatherDisplay:10.37,2013-08-28 18:00:00,
2013-08-28 13:05:00,88.8,76.4,30.03,WSW,242,0.0,0.0,67,0.00,CLR,FEW,0.01,WeatherDisplay:10.37,2013-08-28 18:05:00,
2013-08-28 13:10:00,88.8,75.0,30.03,WNW,303,0.0,0.0,64,0.00,CLR,FEW,0.01,WeatherDisplay:10.37,2013-08-28 18:10:00,
2013-08-28 13:15:00,89.1,75.3,30.03,NW,325,0.0,0.0,64,0.00,CLR,FEW,0.01,WeatherDisplay:10.37,2013-08-28 18:15:00,
2013-08-28 13:20:00,89.3,75.0,30.03,WNW,292,0.0,0.0,63,0.00,CLR,FEW,0.01,WeatherDisplay:10.37,2013-08-28 18:20:00,
2013-08-28 13:25:00,89.2,74.0,30.03,SSW,209,0.0,0.0,61,0.00,CLR,FEW,0.01,WeatherDisplay:10.37,2013-08-28 18:25:00,
2013-08-28 13:30:00,89.4,76.5,30.03,WSW,252,0.0,0.0,66,0.00,CLR,FEW,0.01,WeatherDisplay:10.37,2013-08-28 18:30:00,
2013-08-28 13:35:00,89.6,74.4,30.03,SW,225,0.0,0.0,61,0.00,CLR,FEW,0.01,WeatherDisplay:10.37,2013-08-28 18:35:00,
2013-08-28 13:40:00,89.7,74.5,30.03,West,267,0.0,0.0,61,0.00,CLR,FEW,0.01,WeatherDisplay:10.37,2013-08-28 18:40:00,
2013-08-28 13:45:00,90.0,75.2,30.03,NW,306,0.0,0.0,62,0.00,CLR,FEW,0.01,WeatherDisplay:10.37,2013-08-28 18:45:00,
2013-08-28 13:50:00,90.1,75.8,30.03,South,181,0.0,0.0,63,0.00,CLR,FEW,0.01,WeatherDisplay:10.37,2013-08-28 18:50:00,
2013-08-28 13:56:00,90.3,74.0,30.02,South,186,0.0,0.0,59,0.00,CLR,FEW,0.01,WeatherDisplay:10.37,2013-08-28 18:56:00,
2013-08-28 14:00:00,90.3,74.5,30.02,WSW,248,0.0,0.0,60,0.00,CLR,FEW,0.01,WeatherDisplay:10.37,2013-08-28 19:00:00,
2013-08-28 14:06:00,90.1,74.8,30.02,SW,220,0.0,0.0,61,0.00,CLR,FEW,0.01,WeatherDisplay:10.37,2013-08-28 19:06:00,
2013-08-28 14:11:00,90.4,76.1,30.02,NW,324,0.0,0.0,63,0.00,CLR,FEW,0.01,WeatherDisplay:10.37,2013-08-28 19:11:00,
2013-08-28 14:16:00,90.7,73.9,30.02,NW,324,0.0,0.0,58,0.00,CLR,FEW,0.01,WeatherDisplay:10.37,2013-08-28 19:16:00,
2013-08-28 14:21:00,91.0,75.2,30.01,WSW,254,0.0,0.0,60,0.00,CLR,FEW,0.01,WeatherDisplay:10.37,2013-08-28 19:21:00,
2013-08-28 14:26:00,91.1,75.3,30.01,SSW,208,0.0,0.0,60,0.00,CLR,FEW,0.01,WeatherDisplay:10.37,2013-08-28 19:26:00,
2013-08-28 14:31:00,91.1,76.3,30.01,WSW,253,0.0,0.0,62,0.00,CLR,FEW,0.01,WeatherDisplay:10.37,2013-08-28 19:31:00,
2013-08-28 14:36:00,91.2,75.4,30.01,WSW,242,0.0,0.0,60,0.00,CLR,FEW,0.01,WeatherDisplay:10.37,2013-08-28 19:36:00,
2013-08-28 14:41:00,91.4,76.5,30.01,West,263,0.0,0.0,62,0.00,CLR,FEW,0.01,WeatherDisplay:10.37,2013-08-28 19:41:00,
2013-08-28 14:46:00,91.3,76.0,30.01,South,173,0.0,0.0,61,0.00,CLR,FEW,0.01,WeatherDisplay:10.37,2013-08-28 19:46:00,
2013-08-28 14:51:00,91.3,75.0,30.00,WSW,254,0.0,0.0,59,0.00,CLR,FEW,0.01,WeatherDisplay:10.37,2013-08-28 19:51:00,
2013-08-28 14:56:00,90.8,75.0,30.00,SW,217,0.0,0.0,60,0.00,CLR,FEW,0.01,WeatherDisplay:10.37,2013-08-28 19:56:00,
2013-08-28 15:01:00,90.6,72.8,30.00,South,180,0.0,0.0,56,0.00,CLR,FEW,0.01,WeatherDisplay:10.37,2013-08-28 20:01:00,
2013-08-28 15:06:00,90.1,74.8,30.00,South,189,0.0,0.0,61,0.00,CLR,FEW,0.01,WeatherDisplay:10.37,2013-08-28 20:06:00,
2013-08-28 15:11:00,89.5,73.8,30.00,SSW,209,0.0,0.0,60,0.00,CLR,FEW,0.01,WeatherDisplay:10.37,2013-08-28 20:11:00,
2013-08-28 15:16:00,89.3,74.6,30.00,WSW,247,0.0,0.0,62,0.00,CLR,FEW,0.01,WeatherDisplay:10.37,2013-08-28 20:16:00,
2013-08-28 15:21:00,89.8,75.5,30.00,WSW,253,0.0,0.0,63,0.00,CLR,FEW,0.01,WeatherDisplay:10.37,2013-08-28 20:21:00,
2013-08-28 15:26:00,90.6,77.7,30.00,SSW,198,0.0,0.0,66,0.00,CLR,FEW,0.01,WeatherDisplay:10.37,2013-08-28 20:26:00,
2013-08-28 15:31:00,90.9,75.1,30.00,SSW,207,0.0,0.0,60,0.00,CLR,FEW,0.01,WeatherDisplay:10.37,2013-08-28 20:31:00,
2013-08-28 15:36:00,91.2,74.4,30.00,SW,228,0.0,0.0,58,0.00,CLR,FEW,0.01,WeatherDisplay:10.37,2013-08-28 20:36:00,
2013-08-28 15:41:00,91.4,75.6,30.00,WSW,250,0.0,0.0,60,0.00,CLR,FEW,0.01,WeatherDisplay:10.37,2013-08-28 20:41:00,
2013-08-28 15:46:00,91.3,76.0,30.00,WSW,250,0.0,0.0,61,0.00,CLR,FEW,0.01,WeatherDisplay:10.37,2013-08-28 20:46:00,
2013-08-28 15:51:00,91.4,76.1,30.00,WSW,250,0.0,0.0,61,0.00,CLR,FEW,0.01,WeatherDisplay:10.37,2013-08-28 20:51:00,
2013-08-28 15:56:00,91.3,76.5,30.00,West,263,0.0,0.0,62,0.00,CLR,FEW,0.01,WeatherDisplay:10.37,2013-08-28 20:56:00,
2013-08-28 16:01:00,91.3,74.4,30.00,NW,321,0.0,0.0,58,0.00,CLR,FEW,0.01,WeatherDisplay:10.37,2013-08-28 21:01:00,
2013-08-28 16:06:00,90.8,77.4,30.00,WSW,248,0.0,0.0,65,0.00,CLR,FEW,0.01,WeatherDisplay:10.37,2013-08-28 21:06:00,
2013-08-28 16:11:00,89.6,75.3,30.00,WSW,242,0.0,0.0,63,0.00,CLR,FEW,0.01,WeatherDisplay:10.37,2013-08-28 21:11:00,
2013-08-28 16:16:00,88.8,75.0,30.00,WSW,242,0.0,0.0,64,0.00,CLR,FEW,0.01,WeatherDisplay:10.37,2013-08-28 21:16:00,
2013-08-28 16:21:00,88.7,77.7,29.99,WSW,242,0.0,0.0,70,0.00,CLR,FEW,0.01,WeatherDisplay:10.37,2013-08-28 21:21:00,
2013-08-28 16:26:00,89.2,76.8,30.00,WSW,244,0.0,0.0,67,0.00,CLR,FEW,0.01,WeatherDisplay:10.37,2013-08-28 21:26:00,
2013-08-28 16:31:00,89.2,76.8,30.00,WSW,243,0.0,0.0,67,0.00,CLR,FEW,0.01,WeatherDisplay:10.37,2013-08-28 21:31:00,
2013-08-28 16:36:00,88.5,75.7,30.00,WSW,243,0.0,0.0,66,0.00,CLR,FEW,0.01,WeatherDisplay:10.37,2013-08-28 21:36:00,
2013-08-28 16:41:00,87.7,75.4,30.00,WSW,243,0.0,0.0,67,0.00,CLR,FEW,0.01,WeatherDisplay:10.37,2013-08-28 21:41:00,
2013-08-28 16:46:00,87.2,76.2,30.00,WSW,243,0.0,0.0,70,0.00,CLR,FEW,0.01,WeatherDisplay:10.37,2013-08-28 21:46:00,
2013-08-28 16:51:00,87.4,76.4,29.99,WSW,254,0.0,0.0,70,0.00,CLR,FEW,0.01,WeatherDisplay:10.37,2013-08-28 21:51:00,
2013-08-28 16:56:00,87.9,77.3,29.99,WSW,254,0.0,0.0,71,0.00,CLR,FEW,0.01,WeatherDisplay:10.37,2013-08-28 21:56:00,
2013-08-28 17:01:00,87.8,76.4,29.99,SW,219,0.0,0.0,69,0.00,CLR,FEW,0.01,WeatherDisplay:10.37,2013-08-28 22:01:00,
2013-08-28 17:06:00,88.0,77.0,29.99,SW,219,0.0,0.0,70,0.00,CLR,FEW,0.01,WeatherDisplay:10.37,2013-08-28 22:06:00,
2013-08-28 17:11:00,88.4,75.6,29.99,SW,222,0.0,0.0,66,0.00,CLR,FEW,0.01,WeatherDisplay:10.37,2013-08-28 22:11:00,
2013-08-28 17:16:00,88.6,74.9,29.99,SW,235,0.0,0.0,64,0.00,CLR,FEW,0.01,WeatherDisplay:10.37,2013-08-28 22:16:00,
2013-08-28 17:21:00,88.7,75.4,29.99,SW,229,0.0,0.0,65,0.00,CLR,FEW,0.01,WeatherDisplay:10.37,2013-08-28 22:21:00,
2013-08-28 17:26:00,88.9,76.5,29.99,SW,220,0.0,0.0,67,0.00,CLR,FEW,0.01,WeatherDisplay:10.37,2013-08-28 22:26:00,
2013-08-28 17:31:00,89.0,76.2,29.99,SSW,212,0.0,0.0,66,0.00,CLR,FEW,0.01,WeatherDisplay:10.37,2013-08-28 22:31:00,
2013-08-28 17:36:00,89.1,75.8,29.99,SSW,212,0.0,0.0,65,0.00,CLR,FEW,0.01,WeatherDisplay:10.37,2013-08-28 22:36:00,
2013-08-28 17:41:00,88.9,76.1,29.99,South,189,0.0,0.0,66,0.00,CLR,FEW,0.01,WeatherDisplay:10.37,2013-08-28 22:41:00,
2013-08-28 17:46:00,88.6,76.7,29.99,NW,319,0.0,0.0,68,0.00,CLR,FEW,0.01,WeatherDisplay:10.37,2013-08-28 22:46:00,
2013-08-28 17:51:00,88.1,75.3,29.98,SW,235,0.0,0.0,66,0.00,CLR,FEW,0.01,WeatherDisplay:10.37,2013-08-28 22:51:00,
2013-08-28 17:56:00,87.5,75.6,29.99,SW,235,0.0,0.0,68,0.00,CLR,FEW,0.01,WeatherDisplay:10.37,2013-08-28 22:56:00,
2013-08-28 18:01:00,87.0,75.6,29.99,SW,236,0.0,0.0,69,0.00,CLR,FEW,0.01,WeatherDisplay:10.37,2013-08-28 23:01:00,
2013-08-28 18:06:00,86.5,75.5,29.99,SW,236,0.0,0.0,70,0.00,CLR,FEW,0.01,WeatherDisplay:10.37,2013-08-28 23:06:00,
2013-08-28 18:11:00,86.3,75.8,29.99,SW,235,0.0,0.0,71,0.00,CLR,FEW,0.01,WeatherDisplay:10.37,2013-08-28 23:11:00,
2013-08-28 18:16:00,86.0,75.1,29.99,SW,235,0.0,0.0,70,0.00,CLR,FEW,0.01,WeatherDisplay:10.37,2013-08-28 23:16:00,
2013-08-28 18:21:00,85.6,75.1,29.99,SW,235,0.0,0.0,71,0.00,CLR,FEW,0.01,WeatherDisplay:10.37,2013-08-28 23:21:00,
2013-08-28 18:26:00,85.1,75.1,29.99,SW,234,0.0,0.0,72,0.00,CLR,FEW,0.01,WeatherDisplay:10.37,2013-08-28 23:26:00,
2013-08-28 18:31:00,84.6,75.0,29.99,SW,234,0.0,0.0,73,0.00,CLR,FEW,0.01,WeatherDisplay:10.37,2013-08-28 23:31:00,
2013-08-28 18:36:00,84.1,74.9,29.99,SW,234,0.0,0.0,74,0.00,CLR,FEW,0.01,WeatherDisplay:10.37,2013-08-28 23:36:00,
2013-08-28 18:41:00,83.7,74.5,29.99,SW,234,0.0,0.0,74,0.00,CLR,FEW,0.01,WeatherDisplay:10.37,2013-08-28 23:41:00,
2013-08-28 18:46:00,83.3,74.5,29.99,SW,234,0.0,0.0,75,0.00,CLR,FEW,0.01,WeatherDisplay:10.37,2013-08-28 23:46:00,
2013-08-28 18:51:00,82.9,74.2,29.99,SW,234,0.0,0.0,75,0.00,CLR,FEW,0.01,WeatherDisplay:10.37,2013-08-28 23:51:00,
2013-08-28 18:56:00,82.5,74.2,29.99,SW,234,0.0,0.0,76,0.00,CLR,FEW,0.01,WeatherDisplay:10.37,2013-08-28 23:56:00,
2013-08-28 19:01:00,82.1,74.6,29.99,SW,234,0.0,0.0,78,0.00,CLR,FEW,0.01,WeatherDisplay:10.37,2013-08-29 00:01:00,
2013-08-28 19:06:00,81.7,74.2,29.99,SW,234,0.0,0.0,78,0.00,CLR,FEW,0.01,WeatherDisplay:10.37,2013-08-29 00:06:00,
2013-08-28 19:11:00,81.4,74.3,29.99,SW,234,0.0,0.0,79,0.00,CLR,FEW,0.01,WeatherDisplay:10.37,2013-08-29 00:11:00,
2013-08-28 19:16:00,81.1,74.3,29.99,SW,234,0.0,0.0,80,0.00,CLR,FEW,0.01,WeatherDisplay:10.37,2013-08-29 00:16:00,
2013-08-28 19:21:00,80.7,74.3,29.99,SW,234,0.0,0.0,81,0.00,CLR,FEW,0.01,WeatherDisplay:10.37,2013-08-29 00:21:00,
2013-08-28 19:26:00,80.4,74.4,29.99,SW,234,0.0,0.0,82,0.00,CLR,FEW,0.01,WeatherDisplay:10.37,2013-08-29 00:26:00,
2013-08-28 19:31:00,80.1,74.5,29.99,SW,234,0.0,0.0,83,0.00,CLR,FEW,0.01,WeatherDisplay:10.37,2013-08-29 00:31:00,
2013-08-28 19:37:00,79.8,74.5,29.99,SW,234,0.0,0.0,84,0.00,CLR,FEW,0.01,WeatherDisplay:10.37,2013-08-29 00:37:00,
2013-08-28 19:42:00,79.6,74.7,30.00,SW,234,0.0,0.0,85,0.00,CLR,FEW,0.01,WeatherDisplay:10.37,2013-08-29 00:42:00,
2013-08-28 19:47:00,79.2,74.6,30.00,SW,234,0.0,0.0,86,0.00,CLR,FEW,0.01,WeatherDisplay:10.37,2013-08-29 00:47:00,
2013-08-28 19:52:00,78.9,74.7,29.99,SW,234,0.0,0.0,87,0.00,CLR,FEW,0.01,WeatherDisplay:10.37,2013-08-29 00:52:00,
2013-08-28 19:57:00,78.7,74.8,30.00,SW,234,0.0,0.0,88,0.00,CLR,FEW,0.01,WeatherDisplay:10.37,2013-08-29 00:57:00,
2013-08-28 20:02:00,78.5,75.0,30.00,SW,234,0.0,0.0,89,0.00,CLR,FEW,0.01,WeatherDisplay:10.37,2013-08-29 01:02:00,
2013-08-28 20:07:00,78.3,74.8,30.00,SW,234,0.0,0.0,89,0.00,CLR,FEW,0.01,WeatherDisplay:10.37,2013-08-29 01:07:00,
2013-08-28 20:12:00,78.0,74.8,30.00,SW,234,0.0,0.0,90,0.00,CLR,FEW,0.01,WeatherDisplay:10.37,2013-08-29 01:12:00,
2013-08-28 20:17:00,77.7,74.9,29.99,SW,234,0.0,0.0,91,0.00,CLR,FEW,0.01,WeatherDisplay:10.37,2013-08-29 01:17:00,
2013-08-28 20:22:00,77.5,74.7,30.00,SW,234,0.0,0.0,91,0.00,CLR,FEW,0.01,WeatherDisplay:10.37,2013-08-29 01:22:00,
2013-08-28 20:27:00,77.4,74.6,30.00,SW,234,0.0,0.0,91,0.00,CLR,FEW,0.01,WeatherDisplay:10.37,2013-08-29 01:27:00,
2013-08-28 20:32:00,77.1,74.6,30.00,SW,234,0.0,0.0,92,0.00,CLR,FEW,0.01,WeatherDisplay:10.37,2013-08-29 01:32:00,
2013-08-28 20:37:00,77.0,74.5,30.00,SW,234,0.0,0.0,92,0.00,CLR,FEW,0.01,WeatherDisplay:10.37,2013-08-29 01:37:00,
2013-08-28 20:42:00,76.8,74.6,30.01,SW,234,0.0,0.0,93,0.00,CLR,FEW,0.01,WeatherDisplay:10.37,2013-08-29 01:42:00,
2013-08-28 20:47:00,76.7,74.5,30.01,SW,234,0.0,0.0,93,0.00,CLR,FEW,0.01,WeatherDisplay:10.37,2013-08-29 01:47:00,
2013-08-28 20:52:00,76.5,74.3,30.01,SW,234,0.0,0.0,93,0.00,CLR,FEW,0.01,WeatherDisplay:10.37,2013-08-29 01:52:00,
2013-08-28 20:57:00,76.4,74.5,30.01,SW,234,0.0,0.0,94,0.00,CLR,FEW,0.01,WeatherDisplay:10.37,2013-08-29 01:57:00,
2013-08-28 21:02:00,76.3,74.4,30.01,SW,234,0.0,0.0,94,0.00,CLR,FEW,0.01,WeatherDisplay:10.37,2013-08-29 02:02:00,
2013-08-28 21:07:00,76.1,74.2,30.01,SW,234,0.0,0.0,94,0.00,CLR,FEW,0.01,WeatherDisplay:10.37,2013-08-29 02:07:00,
2013-08-28 21:12:00,76.0,74.1,30.01,SW,234,0.0,0.0,94,0.00,CLR,FEW,0.01,WeatherDisplay:10.37,2013-08-29 02:12:00,
2013-08-28 21:17:00,75.9,74.0,30.01,SW,234,0.0,0.0,94,0.00,CLR,FEW,0.01,WeatherDisplay:10.37,2013-08-29 02:17:00,
2013-08-28 21:22:00,75.9,74.0,30.01,SW,234,0.0,0.0,94,0.00,CLR,FEW,0.01,WeatherDisplay:10.37,2013-08-29 02:22:00,
2013-08-28 21:27:00,75.8,74.3,30.01,SW,234,0.0,0.0,95,0.00,CLR,FEW,0.01,WeatherDisplay:10.37,2013-08-29 02:27:00,
2013-08-28 21:32:00,75.6,74.1,30.01,SW,234,0.0,0.0,95,0.00,CLR,FEW,0.01,WeatherDisplay:10.37,2013-08-29 02:32:00,
2013-08-28 21:37:00,75.5,73.7,30.01,SW,234,0.0,0.0,94,0.00,CLR,FEW,0.01,WeatherDisplay:10.37,2013-08-29 02:37:00,
2013-08-28 21:42:00,75.3,73.8,30.01,SW,234,0.0,0.0,95,0.00,CLR,FEW,0.01,WeatherDisplay:10.37,2013-08-29 02:42:00,
2013-08-28 21:47:00,75.2,73.7,30.01,SW,234,0.0,0.0,95,0.00,CLR,FEW,0.01,WeatherDisplay:10.37,2013-08-29 02:47:00,
2013-08-28 21:52:00,75.0,73.5,30.01,SW,234,0.0,0.0,95,0.00,CLR,FEW,0.01,WeatherDisplay:10.37,2013-08-29 02:52:00,
2013-08-28 21:57:00,74.9,73.4,30.01,SW,234,0.0,0.0,95,0.00,CLR,FEW,0.01,WeatherDisplay:10.37,2013-08-29 02:57:00,
2013-08-28 22:02:00,74.8,73.3,30.01,SW,234,0.0,0.0,95,0.00,CLR,FEW,0.01,WeatherDisplay:10.37,2013-08-29 03:02:00,
2013-08-28 22:07:00,74.7,73.2,30.02,SW,234,0.0,0.0,95,0.00,CLR,FEW,0.01,WeatherDisplay:10.37,2013-08-29 03:07:00,
2013-08-28 22:12:00,74.6,73.1,30.02,SW,234,0.0,0.0,95,0.00,CLR,FEW,0.01,WeatherDisplay:10.37,2013-08-29 03:12:00,
2013-08-28 22:17:00,74.6,73.4,30.01,SW,234,0.0,0.0,96,0.00,CLR,FEW,0.01,WeatherDisplay:10.37,2013-08-29 03:17:00,
2013-08-28 22:22:00,74.4,72.9,30.01,SW,234,0.0,0.0,95,0.00,CLR,FEW,0.01,WeatherDisplay:10.37,2013-08-29 03:22:00,
2013-08-28 22:27:00,74.3,73.1,30.01,SW,234,0.0,0.0,96,0.00,CLR,FEW,0.01,WeatherDisplay:10.37,2013-08-29 03:27:00,
2013-08-28 22:32:00,74.2,73.0,30.01,SW,234,0.0,0.0,96,0.00,CLR,FEW,0.01,WeatherDisplay:10.37,2013-08-29 03:32:00,
2013-08-28 22:37:00,74.1,72.9,30.01,SW,234,0.0,0.0,96,0.00,CLR,FEW,0.01,WeatherDisplay:10.37,2013-08-29 03:37:00,
2013-08-28 22:42:00,74.0,72.8,30.01,SW,234,0.0,0.0,96,0.00,CLR,FEW,0.01,WeatherDisplay:10.37,2013-08-29 03:42:00,
2013-08-28 22:47:00,73.9,72.7,30.01,SW,234,0.0,0.0,96,0.00,CLR,FEW,0.01,WeatherDisplay:10.37,2013-08-29 03:47:00,
2013-08-28 22:52:00,73.8,72.6,30.01,SW,234,0.0,0.0,96,0.00,CLR,FEW,0.01,WeatherDisplay:10.37,2013-08-29 03:52:00,
2013-08-28 22:57:00,73.7,72.5,30.01,SW,234,0.0,0.0,96,0.00,CLR,FEW,0.01,WeatherDisplay:10.37,2013-08-29 03:57:00,
2013-08-28 23:01:00,73.7,72.5,30.01,SW,234,0.0,0.0,96,0.00,CLR,FEW,0.01,WeatherDisplay:10.37,2013-08-29 04:01:00,
2013-08-28 23:02:00,73.7,72.5,30.01,SW,234,0.0,0.0,96,0.00,CLR,FEW,0.01,WeatherDisplay:10.37,2013-08-29 04:02:00,
2013-08-28 23:07:00,73.7,72.5,30.01,SW,234,0.0,0.0,96,0.00,CLR,FEW,0.01,WeatherDisplay:10.37,2013-08-29 04:07:00,
2013-08-28 23:12:00,73.6,72.4,30.01,SW,234,0.0,0.0,96,0.00,CLR,FEW,0.01,WeatherDisplay:10.37,2013-08-29 04:12:00,
2013-08-28 23:17:00,73.5,72.3,30.01,SW,234,0.0,0.0,96,0.00,CLR,FEW,0.01,WeatherDisplay:10.37,2013-08-29 04:17:00,
2013-08-28 23:22:00,73.4,72.2,30.01,SW,234,0.0,0.0,96,0.00,CLR,FEW,0.01,WeatherDisplay:10.37,2013-08-29 04:22:00,
2013-08-28 23:27:00,73.3,72.1,30.01,SW,234,0.0,0.0,96,0.00,CLR,FEW,0.01,WeatherDisplay:10.37,2013-08-29 04:27:00,
2013-08-28 23:32:00,73.3,72.1,30.00,SW,234,0.0,0.0,96,0.00,CLR,FEW,0.01,WeatherDisplay:10.37,2013-08-29 04:32:00,
2013-08-28 23:37:00,73.2,72.0,30.00,SW,234,0.0,0.0,96,0.00,CLR,FEW,0.01,WeatherDisplay:10.37,2013-08-29 04:37:00,
2013-08-28 23:42:00,73.1,71.9,30.00,SW,234,0.0,0.0,96,0.00,CLR,FEW,0.01,WeatherDisplay:10.37,2013-08-29 04:42:00,
2013-08-28 23:47:00,73.0,71.8,30.00,SW,234,0.0,0.0,96,0.00,CLR,FEW,0.01,WeatherDisplay:10.37,2013-08-29 04:47:00,
2013-08-28 23:52:00,73.0,71.8,30.00,SW,234,0.0,0.0,96,0.00,CLR,FEW,0.01,WeatherDisplay:10.37,2013-08-29 04:52:00,
2013-08-28 23:57:00,72.9,71.7,30.00,SW,234,0.0,0.0,96,0.00,CLR,FEW,0.01,WeatherDisplay:10.37,2013-08-29 04:57:00,